Home   Weather   Concepción de La Vega   Past weeks
Flag for Dominican Republic

Past Weather in Concepción de La Vega, Dominican Republic — Yesterday and Last 2 Weeks

Now
82 °F

Passing clouds.


Feels Like: 91 °F
Forecast: 94 / 77 °F
Wind: 12 mph from Southeast

Location: Santiago

Current Time: Sep 15, 2019 at 10:11:03 am

Latest Report: Sep 15, 2019 at 9:00 am


Visibility: N/A

Pressure: 29.98 "Hg

Humidity: 84%

Dew Point: 77 °F

Location of Concepción de La VegaLocation

Past Weather in Concepción de La Vega — Graph

°F

Concepción de La Vega Temperature Yesterday

Maximum temperature yesterday: 95 °F (at 3:00 pm)
Minimum temperature yesterday: 73 °F (at 2:00 am)
Average temperature yesterday: 84 °F

High & Low Weather Summary for the Past Weeks

 TemperatureHumidityPressure
High97 °F (Sep 5, 3:00 pm)100% (Aug 31, 9:00 am)30.04 "Hg (Aug 31, 9:00 am)
Low70 °F (Sep 11, 4:00 am)39% (Sep 2, 3:00 pm)29.80 "Hg (Sep 2, 4:00 pm)
Average82 °F78%29.95 "Hg
* Reported Aug 31 9:00 am — Sep 15 9:00 am, Concepción de La Vega. Weather by CustomWeather, © 2019

Note: Actual official high and low records may vary slightly from our data, if they occured in-between our weather recording intervals... More about our weather records

Advertising

Concepción de La Vega Weather History for the Previous 24 Hours

Scroll right to see more
 ConditionsComfort  
Time TempWeatherWind HumidityBarometerVisibility
9:00 am
Sun, Sep 15
82 °FPassing clouds.12 mph84%29.98 "HgN/A
8:00 am79 °FPassing clouds.6 mph94%29.98 "HgN/A
7:00 am77 °FPartly sunny.6 mph94%29.98 "HgN/A
6:00 am77 °FPartly cloudy.7 mph94%29.95 "HgN/A
5:00 am77 °FPartly cloudy.No wind100%29.92 "HgN/A
4:00 am79 °FPartly cloudy.5 mph94%29.92 "HgN/A
3:00 am79 °FPartly cloudy.8 mph94%29.98 "HgN/A
2:00 am81 °FPartly cloudy.7 mph94%29.98 "HgN/A
1:00 am81 °FPassing clouds.7 mph94%29.98 "HgN/A
12:00 am81 °FPartly cloudy.6 mph94%29.98 "HgN/A
11:00 pm
Sat, Sep 14
82 °FPassing clouds.10 mph84%29.98 "HgN/A
10:00 pm82 °FPartly cloudy.8 mph84%29.98 "HgN/A
9:00 pm82 °FThundershowers. Passing clouds.10 mph84%29.98 "HgN/A
8:00 pm84 °FThundershowers. Passing clouds.12 mph74%29.95 "HgN/A
7:00 pm88 °FPassing clouds.13 mph75%29.92 "HgN/A
6:00 pm93 °FPartly sunny.16 mph53%29.89 "HgN/A
5:00 pm95 °FPartly sunny.16 mph50%29.89 "HgN/A
4:00 pm95 °FPartly sunny.13 mph47%29.86 "HgN/A
3:00 pm95 °FScattered clouds.15 mph47%29.89 "HgN/A
2:00 pm93 °FScattered clouds.16 mph53%29.89 "HgN/A
1:00 pm93 °FExtremely hot.16 mph63%29.95 "HgN/A
12:00 pm91 °FHot.12 mph71%29.95 "HgN/A
11:00 am88 °FBroken clouds.14 mph79%29.98 "HgN/A
10:00 am86 °FBroken clouds.13 mph84%29.98 "HgN/A
Weather by CustomWeather, © 2019

See weather overview